Regional Weather Roundup
Issued by NWS

Home | Current Version | Previous Version | Text Only | Print | Product List | Glossary On
Versions: 1 2 3 4 5 6 7 8 9 10 11 12 13 14 15 16 17 18 19 20 21 22 23 24 25 26 27 28 29 30 31 32 33 34 35 36 37 38 39 40 41 42 43 44 45 46 47 48 49 50
000
ASUS46 KSEW 250510
RWRWA

WASHINGTON REGIONAL WEATHER ROUNDUP
NATIONAL WEATHER SERVICE SEATTLE WA
1000 PM PDT SUN MAY 24 2015

NOTE:"FAIR" INDICATES FEW OR NO CLOUDS BELOW 12,000 FEET WITH NO
SIGNIFICANT WEATHER AND/OR OBSTRUCTIONS TO VISIBILITY.

WAZ505-507>509-250600-
SEATTLE, TACOMA, EVERETT, AND VICINITY

CITY           SKY/WX    TMP DP  RH WIND       PRES   REMARKS
EVERETT        CLOUDY    57  50  77 SW5       30.02S
BOEING FIELD   CLOUDY    61  49  64 VRB3      30.01S
RENTON         CLOUDY    60  49  66 CALM      30.01S
SEATAC AIRPORT MOCLDY    57  50  77 S6        30.02S
JBLM-MCCHORD   MOCLDY    55  50  82 W6        30.02S
PUYALLUP       CLOUDY    57  52  82 CALM      30.03R
BREMERTON      CLOUDY    54  50  87 S6        30.04S
JBLM-FT LEWIS  CLOUDY    56  51  82 SW7       30.03R
TACOMA NARROWS CLOUDY    54  48  80 SW6       30.02S
$$

WAZ001-503-506-510-514-515-250600-
NORTH INTERIOR

CITY           SKY/WX    TMP DP  RH WIND       PRES   REMARKS
BELLINGHAM     CLEAR     56  50  80 S9        29.99S
FRIDAY HARBOR  CLEAR     49  46  90 S3        30.01S
EASTSOUND      CLEAR     55  50  82 S9        29.98S
PORT ANGELES   CLEAR     49  46  90 W6        30.02S
PORT TOWNSEND  CLOUDY    54  50  87 CALM      30.02R
NAS WHIDBEY    MOCLDY    56  53  90 CALM      30.06R
ARLINGTON      CLOUDY    57  50  77 CALM      30.02S
BURLINGTON     CLOUDY    55  50  82 CALM      30.02R
$$

WAZ020-022-039-040-504-511-512-250600-
SOUTHWEST INTERIOR

CITY           SKY/WX    TMP DP  RH WIND       PRES   REMARKS
SHELTON        CLOUDY    53  47  79 SW8       30.01S
OLYMPIA        CLOUDY    53  46  77 SW7       30.04R
CHEHALIS       CLOUDY    54  48  82 VRB3      30.05R
KELSO          CLOUDY    55  46  71 NW5       30.08S
VANCOUVER      CLOUDY    58  47  66 NW8       30.02R
SCAPPOOSE, OR  PTCLDY    55  46  71 N5        30.03R
PORTLAND, OR   MOCLDY    59  49  69 NW9       30.03R
$$

WAZ021-516-517-250600-
WASHINGTON COAST

CITY           SKY/WX    TMP DP  RH WIND       PRES   REMARKS
FORKS          CLOUDY    51  50  96 CALM      30.05R
HOQUIAM        CLOUDY    53  50  89 W7        30.05S
ASTORIA, OR    CLOUDY    52  49  89 W5        30.07R
$$

WAZ019-023-024-040-518-519-250600-
CASCADE MOUNTAINS AND COLUMBIA GORGE

CITY           SKY/WX    TMP DP  RH WIND       PRES   REMARKS
TROUTDALE, OR  CLOUDY    61  49  64 NW7       30.01R
THE DALLES, OR PTCLDY    65  45  48 W25G38    29.88R
$$

WAZ026-027-041>044-520-521-250600-
EAST SLOPES

CITY           SKY/WX    TMP DP  RH WIND       PRES   REMARKS
OMAK           MOCLDY    59  50  72 N14       29.88F
WENATCHEE      CLOUDY    67  40  37 W21G28    29.86R
ELLENSBURG     CLOUDY    60  44  55 NW28      29.88S
YAKIMA         CLOUDY    67  44  43 NW18G28   29.86R
$$

WAZ028-034-035-250600-
COLUMBIA BASIN

CITY           SKY/WX    TMP DP  RH WIND       PRES   REMARKS
EPHRATA        CLOUDY    65  50  58 N14       29.82R
MOSES LAKE     CLOUDY    66  51  58 NW14      29.81R
PASCO          CLOUDY    70  42  36 W10       29.80R
HERMISTON, OR  MOCLDY    65  47  52 SW12      29.83R
$$

WAZ036>038-250600-
NORTHEAST WASHINGTON

CITY           SKY/WX    TMP DP  RH WIND       PRES   REMARKS
SPOKANE GEIGER CLOUDY    66  46  48 NW12      29.85R
SPOKANE FELTS  CLOUDY    67  46  47 N16G28    29.84R
FAIRCHILD AFB  CLOUDY    63  44  51 NW14      29.86R
COEURDALENE,ID CLOUDY    63  48  59 CALM      29.84R
DEER PARK      CLOUDY    60  47  61 NW13      29.87R
$$

WAZ029>033-250600-
SOUTHEAST WASHINGTON

CITY           SKY/WX    TMP DP  RH WIND       PRES   REMARKS
PULLMAN        CLOUDY    57  51  80 CALM      29.88S
LEWISTON, ID   MOCLDY    68  53  58 S5        29.82R
WALLA WALLA    CLOUDY    69  51  52 SE7       29.81R
PENDLETON, OR  MOCLDY    62  47  57 NW12      29.83R
$$


USA.gov is the U.S. government's official web portal to all federal, state and local government web resources and services.